Precipitable_Water
0.41 0.43 0.46 0.46 0.47 0.46 0.50 0.63 0.76 0.87 0.99 1.20 1.30 1.35 1.24 1.18 1.17 1.19 1.23 1.22 1.16 1.06 0.97 0.94 0.98 1.09 1.15 1.26 1.39 1.35 1.30 1.28 1.30 1.33 1.38 1.37 1.41 1.38 1.35 1.30 1.10 1.02 0.91
0.40 0.41 0.41 0.44 0.48 0.51 0.55 0.70 0.75 0.83 0.93 1.11 1.28 1.23 1.21 1.17 1.08 1.13 1.19 1.20 1.16 1.07 0.95 0.95 1.05 1.17 1.22 1.26 1.30 1.29 1.20 1.21 1.32 1.28 1.28 1.11 1.22 1.31 1.31 1.26 1.08 0.95 0.93
0.41 0.37 0.38 0.38 0.44 0.52 0.67 0.75 0.79 0.80 0.93 1.09 1.28 1.24 1.26 1.20 1.05 1.05 1.08 1.16 1.18 1.03 0.95 1.01 1.17 1.24 1.27 1.27 1.32 1.28 1.23 1.14 1.30 1.38 1.25 1.06 0.99 1.13 1.25 1.18 1.00 0.94 0.93
0.54 0.46 0.47 0.43 0.46 0.52 0.68 0.78 0.80 0.83 0.95 1.10 1.25 1.12 1.02 0.94 0.94 0.96 1.07 1.10 1.11 1.00 0.96 1.10 1.22 1.24 1.32 1.31 1.31 1.32 1.27 1.20 1.16 1.35 1.35 1.29 1.20 1.03 0.99 1.11 0.98 0.96 0.93
0.66 0.61 0.60 0.53 0.56 0.66 0.72 0.82 0.84 0.87 0.95 1.14 1.23 1.14 1.07 1.03 0.97 0.99 1.03 1.05 0.96 0.93 0.98 1.10 1.18 1.20 1.28 1.32 1.35 1.31 1.27 1.27 1.25 1.26 1.29 1.23 1.22 1.17 0.96 0.79 0.86 0.94 0.96
0.71 0.72 0.76 0.65 0.62 0.80 0.92 0.97 0.91 0.87 1.09 1.23 1.19 1.11 1.05 0.96 0.92 0.97 1.00 0.99 0.93 0.89 1.01 1.11 1.18 1.27 1.28 1.31 1.32 1.34 1.35 1.30 1.35 1.31 1.28 1.20 1.14 1.08 1.02 0.90 0.93 0.89 0.94
0.77 0.76 0.75 0.68 0.69 0.81 0.92 1.06 1.11 1.06 1.20 1.19 1.12 1.09 1.07 0.97 0.94 1.00 1.01 0.94 0.86 0.85 0.99 1.12 1.17 1.23 1.29 1.34 1.39 1.37 1.37 1.34 1.36 1.34 1.28 1.25 1.21 1.16 1.11 1.07 1.00 0.91 0.97
0.78 0.78 0.80 0.74 0.77 0.83 0.94 0.99 1.21 1.17 1.11 1.06 1.06 1.13 1.09 1.01 1.03 1.04 1.04 0.96 0.85 0.91 1.04 1.11 1.17 1.23 1.30 1.37 1.42 1.41 1.38 1.40 1.36 1.35 1.33 1.29 1.26 1.19 1.13 1.06 1.02 0.93 0.96
0.79 0.79 0.83 0.80 0.81 0.85 1.03 1.08 1.08 1.14 1.12 1.06 1.07 1.11 1.07 1.00 1.03 1.06 1.11 1.03 0.92 0.99 1.03 1.09 1.14 1.21 1.30 1.37 1.42 1.41 1.40 1.40 1.41 1.39 1.35 1.31 1.30 1.27 1.20 1.20 1.16 1.02 0.93
0.71 0.78 0.81 0.84 0.87 0.92 0.97 1.07 1.14 1.20 1.17 1.15 1.15 1.11 1.04 1.02 1.08 1.10 1.11 1.02 0.94 1.01 1.01 1.04 1.10 1.16 1.24 1.33 1.39 1.39 1.42 1.40 1.39 1.39 1.34 1.33 1.31 1.25 1.26 1.23 1.19 1.14 1.02
0.69 0.72 0.80 0.87 0.91 0.92 0.94 0.99 1.09 1.25 1.29 1.29 1.23 1.14 1.06 1.07 1.09 1.14 1.14 1.03 0.97 1.03 1.01 1.03 1.07 1.13 1.19 1.31 1.36 1.38 1.38 1.36 1.35 1.37 1.34 1.31 1.32 1.23 1.26 1.26 1.22 1.17 1.12
0.68 0.71 0.74 0.84 0.90 0.95 0.99 1.04 1.12 1.18 1.36 1.34 1.32 1.20 1.11 1.11 1.12 1.15 1.16 1.09 0.98 1.03 1.03 1.04 1.05 1.10 1.15 1.29 1.36 1.34 1.36 1.33 1.31 1.34 1.31 1.30 1.31 1.27 1.29 1.27 1.18 1.13 1.14
0.67 0.68 0.70 0.73 0.83 0.96 1.05 1.07 1.10 1.16 1.20 1.26 1.36 1.23 1.14 1.13 1.15 1.16 1.18 1.17 1.06 1.04 1.03 1.02 1.00 1.03 1.12 1.19 1.33 1.35 1.32 1.33 1.32 1.32 1.28 1.27 1.28 1.25 1.26 1.22 1.16 1.15 1.12
0.64 0.66 0.67 0.69 0.74 0.87 0.96 1.00 1.10 1.16 1.17 1.31 1.26 1.15 1.11 1.15 1.16 1.21 1.22 1.15 1.08 1.03 0.98 0.98 0.99 1.00 1.04 1.15 1.25 1.34 1.30 1.33 1.32 1.33 1.30 1.29 1.28 1.25 1.22 1.21 1.19 1.15 1.09
0.59 0.62 0.64 0.68 0.70 0.74 0.82 0.90 0.95 1.08 1.12 1.15 1.15 1.23 1.23 1.21 1.21 1.19 1.19 1.14 1.05 1.00 0.96 0.92 0.96 0.96 0.99 1.02 1.12 1.25 1.29 1.28 1.24 1.24 1.24 1.24 1.25 1.27 1.27 1.23 1.19 1.17 1.14
0.57 0.61 0.63 0.67 0.70 0.70 0.72 0.77 0.82 0.93 1.01 1.06 1.10 1.16 1.19 1.19 1.15 1.14 1.12 1.10 1.03 0.98 0.96 0.92 0.91 0.95 0.96 1.01 1.08 1.13 1.11 1.19 1.19 1.17 1.16 1.20 1.21 1.19 1.17 1.15 1.12 1.10 0.99
0.54 0.58 0.61 0.63 0.67 0.72 0.71 0.72 0.76 0.87 0.93 0.97 1.03 1.04 1.09 1.10 1.12 1.11 1.09 1.07 1.01 0.98 0.95 0.93 0.93 0.90 0.93 0.98 1.01 1.04 1.03 0.99 0.99 1.06 1.03 1.05 1.04 1.03 0.99 0.94 0.94 0.93 0.94
0.52 0.57 0.60 0.64 0.66 0.69 0.73 0.75 0.75 0.82 0.86 0.92 0.93 0.99 0.99 0.99 1.01 1.01 1.00 1.00 1.00 0.95 0.94 0.92 0.92 0.91 0.92 0.94 0.97 0.99 0.97 0.94 0.92 0.92 0.90 0.92 0.92 0.96 0.93 0.91 0.92 0.93 0.94
0.51 0.55 0.59 0.62 0.66 0.67 0.70 0.74 0.74 0.73 0.78 0.81 0.87 0.89 0.92 0.89 0.90 0.92 0.94 0.93 0.94 0.95 0.92 0.90 0.89 0.90 0.92 0.95 0.94 0.95 0.92 0.91 0.91 0.89 0.90 0.89 0.90 0.89 0.93 0.96 0.93 0.93 0.92
0.50 0.53 0.56 0.60 0.63 0.66 0.69 0.69 0.70 0.71 0.72 0.74 0.81 0.84 0.85 0.85 0.89 0.86 0.87 0.89 0.90 0.90 0.90 0.89 0.87 0.88 0.90 0.92 0.93 0.96 0.94 0.86 0.87 0.90 0.92 0.92 0.91 0.91 0.92 0.90 0.86 0.82 0.83
0.49 0.53 0.55 0.55 0.60 0.64 0.65 0.64 0.67 0.67 0.71 0.74 0.75 0.78 0.80 0.82 0.82 0.83 0.83 0.83 0.84 0.83 0.83 0.83 0.85 0.86 0.87 0.89 0.90 0.90 0.89 0.86 0.83 0.82 0.84 0.87 0.88 0.87 0.84 0.82 0.73 0.61 0.53
0.47 0.49 0.50 0.51 0.57 0.61 0.62 0.60 0.61 0.65 0.68 0.69 0.70 0.71 0.72 0.73 0.76 0.78 0.76 0.76 0.77 0.74 0.76 0.76 0.77 0.80 0.81 0.82 0.83 0.83 0.83 0.82 0.79 0.74 0.73 0.71 0.69 0.65 0.58 0.53 0.49 0.45 0.42
0.44 0.47 0.48 0.50 0.52 0.58 0.59 0.58 0.60 0.61 0.63 0.63 0.65 0.66 0.67 0.68 0.68 0.66 0.67 0.68 0.70 0.69 0.69 0.69 0.70 0.70 0.72 0.74 0.76 0.75 0.75 0.73 0.66 0.63 0.59 0.55 0.52 0.49 0.48 0.46 0.46 0.44 0.43
0.43 0.45 0.46 0.47 0.49 0.55 0.56 0.56 0.58 0.59 0.60 0.59 0.60 0.61 0.62 0.62 0.63 0.63 0.63 0.64 0.63 0.63 0.63 0.63 0.63 0.63 0.64 0.64 0.65 0.64 0.63 0.61 0.60 0.58 0.57 0.56 0.55 0.55 0.54 0.52 0.49 0.47 0.45
0.43 0.44 0.44 0.45 0.48 0.51 0.53 0.55 0.57 0.57 0.55 0.56 0.56 0.56 0.57 0.58 0.58 0.59 0.59 0.59 0.60 0.60 0.58 0.59 0.60 0.59 0.59 0.61 0.63 0.63 0.62 0.61 0.61 0.59 0.55 0.52 0.48 0.44 0.42 0.39 0.36 0.34 0.32
0.43 0.43 0.43 0.44 0.46 0.48 0.50 0.53 0.54 0.55 0.53 0.51 0.51 0.51 0.52 0.52 0.53 0.53 0.53 0.56 0.56 0.56 0.56 0.56 0.55 0.55 0.56 0.56 0.56 0.53 0.50 0.46 0.42 0.39 0.35 0.32 0.30 0.28 0.27 0.26 0.25 0.25 0.23
Wind_Speed
34 33 33 31 31 36 36 38 37 35 34 33 30 29 28 27 25 23 22 21 20 19 19 20 21 22 23 23 24 24 24 24 24 24 24 29 30 30 28 25 22 21 20
33 35 34 34 30 30 34 37 37 36 35 35 33 28 29 27 26 24 23 21 20 20 20 21 22 23 22 23 24 25 24 24 25 25 30 29 28 28 28 26 24 22 21
32 31 31 32 32 30 30 36 36 35 35 34 31 26 26 25 24 24 23 21 20 20 20 21 21 22 23 23 25 26 26 24 25 28 30 31 27 28 27 26 25 23 22
21 23 24 25 29 31 31 32 35 35 35 35 32 29 26 26 25 24 21 20 19 19 20 20 21 21 22 24 25 26 26 26 24 26 36 31 28 25 24 26 26 24 24
17 17 20 23 25 28 28 31 34 34 33 33 32 28 25 25 24 22 21 20 19 19 19 20 20 21 20 22 24 25 27 27 26 29 31 29 29 25 24 22 24 24 24
14 15 16 18 21 23 26 28 33 33 32 32 31 28 26 25 23 22 20 19 19 18 18 19 20 20 21 22 23 24 26 29 32 30 31 29 28 26 25 21 22 23 23
10 13 13 15 19 22 25 28 31 31 32 31 29 27 26 25 24 22 20 18 17 17 17 18 19 21 21 23 25 26 27 30 33 33 31 30 29 26 25 24 22 23 22
11 10 11 12 15 18 26 27 29 29 30 28 27 27 26 24 23 21 19 18 16 15 16 16 17 19 21 22 25 28 28 32 34 33 32 30 29 26 26 24 23 20 22
8 10 11 11 13 15 19 25 28 31 30 28 27 27 26 24 23 21 19 17 16 15 15 16 16 17 19 20 23 25 27 30 33 33 34 29 29 25 25 24 23 20 19
8 9 9 11 13 15 18 21 26 29 30 28 27 27 26 24 22 20 18 17 15 14 14 14 15 16 17 18 20 23 26 30 31 32 30 29 28 27 24 23 22 20 18
8 9 9 9 9 12 15 18 21 26 28 27 27 27 26 24 22 20 18 16 15 14 13 13 13 13 13 13 16 20 23 27 29 33 30 28 27 27 25 23 22 20 19
8 8 7 9 8 8 10 13 16 21 22 26 27 26 25 24 22 19 17 15 15 14 13 12 12 12 13 12 14 20 23 25 27 31 28 28 27 27 26 25 23 23 23
7 6 6 7 10 9 8 8 6 13 8 27 26 23 24 23 21 19 17 15 15 14 13 12 11 11 11 12 11 14 23 23 26 29 30 27 27 25 25 26 26 26 25
7 5 5 7 8 11 10 10 9 10 11 15 21 21 22 22 21 19 17 14 13 13 12 11 10 10 10 11 12 13 15 21 21 24 28 27 28 27 25 26 27 26 25
7 7 7 7 8 10 10 10 10 10 11 14 20 20 20 22 21 20 18 16 14 13 13 12 11 10 10 11 12 13 14 18 19 19 22 23 23 25 25 23 24 25 24
7 7 8 6 7 9 10 10 10 11 12 13 15 15 18 20 21 20 19 17 16 14 13 12 12 11 10 11 11 14 16 16 19 20 19 19 21 22 21 22 21 22 22
7 7 7 7 6 8 11 11 11 11 11 12 14 17 17 19 20 21 21 19 18 17 15 14 13 12 12 13 13 14 15 16 17 18 19 18 20 20 19 19 18 18 19
6 7 6 6 6 6 9 11 11 11 12 13 15 16 17 19 20 20 20 20 21 20 18 16 16 15 14 14 15 15 16 16 17 18 19 20 20 20 20 20 20 19 20
6 6 6 6 6 6 5 7 10 12 13 15 15 16 18 19 20 21 21 20 21 21 21 19 18 17 16 17 17 17 18 17 17 18 19 20 20 20 21 21 22 22 22
6 6 6 6 5 5 4 4 6 9 11 14 15 16 18 19 15 19 21 21 22 22 22 21 20 19 20 19 19 20 20 20 20 19 20 20 22 22 22 23 24 23 24
6 6 6 6 6 5 4 3 4 5 8 11 14 15 17 16 18 17 18 19 20 22 22 22 21 21 21 21 20 20 21 22 21 20 21 21 21 22 22 22 23 23 23
5 6 6 6 5 4 4 3 4 5 8 8 10 11 15 17 15 17 16 18 17 18 20 20 20 20 21 20 19 19 20 20 21 20 20 19 19 19 19 19 20 21 22
5 5 5 5 5 5 4 4 4 5 4 6 9 10 11 14 15 16 15 16 17 19 19 19 20 19 21 21 20 19 19 19 19 19 19 18 17 18 19 19 20 22 24
5 6 5 5 5 5 5 4 4 5 5 4 5 7 8 10 12 13 14 15 16 17 16 16 18 18 19 20 21 20 21 20 20 19 20 20 20 21 23 24 25 26 27
5 6 6 6 6 6 5 5 5 5 4 4 4 4 5 6 7 8 10 11 13 13 14 15 16 17 18 19 19 20 21 20 21 21 21 21 21 22 22 23 23 24 24
6 5 5 6 6 6 6 6 6 5 5 5 5 5 5 6 6 7 7 7 8 9 11 11 13 14 14 15 15 16 16 17 17 18 18 19 19 20 20 21 22 23 24
Wind_Direction
262 255 252 250 247 240 234 230 227 225 221 221 224 227 227 233 237 244 249 255 255 252 248 246 240 235 230 229 224 221 224 228 228 225 220 213 211 214 214 216 219 220 218
262 260 252 245 243 239 232 226 224 222 220 221 223 227 227 234 238 242 248 254 251 251 249 246 239 233 229 226 225 224 228 230 229 227 220 213 211 211 213 216 217 217 217
264 257 249 241 237 234 231 227 223 219 216 217 219 224 227 232 234 240 247 249 249 249 250 246 237 231 230 228 229 228 230 231 232 229 213 202 211 206 214 217 217 218 218
277 254 246 240 235 232 231 225 219 213 216 215 217 221 228 229 233 238 243 245 246 249 251 241 233 231 231 233 231 231 231 232 231 217 206 213 209 209 213 218 218 219 219
268 258 247 241 236 228 224 219 210 209 213 213 216 221 227 228 229 233 237 242 246 249 248 237 231 231 234 234 233 233 232 231 224 209 204 211 212 216 212 216 219 221 222
266 260 249 239 230 226 220 213 207 212 212 210 216 222 224 223 224 228 234 240 244 247 243 235 232 234 237 235 235 236 232 228 213 213 210 213 212 215 214 217 218 220 225
280 258 255 240 231 228 221 214 209 208 208 213 218 220 218 219 221 224 231 237 241 243 237 234 235 238 241 242 240 236 234 224 213 211 213 213 214 219 221 223 227 228 229
271 262 254 235 234 235 221 215 213 211 210 217 217 214 215 217 220 223 229 235 238 236 234 237 240 240 246 247 243 240 230 216 214 214 215 212 218 223 221 223 225 230 231
259 265 256 238 236 234 221 218 214 214 215 214 213 211 212 215 216 220 227 232 236 237 238 240 240 246 251 250 246 230 220 213 216 211 210 218 215 219 220 221 221 225 226
288 281 260 246 242 232 226 222 221 217 214 213 210 208 210 211 214 219 225 231 234 235 237 239 244 252 252 250 235 222 213 208 208 206 210 212 216 214 219 219 222 220 219
302 286 257 245 238 239 231 230 226 218 216 213 207 204 207 210 212 219 224 229 231 232 234 238 244 248 244 244 224 214 209 205 207 205 212 214 214 216 218 218 219 223 228
314 289 259 239 240 241 237 232 229 225 216 213 204 201 203 206 211 216 221 226 226 228 230 235 244 244 242 239 226 215 211 208 210 208 206 211 214 215 217 218 224 232 238
317 306 272 257 240 236 245 249 230 188 236 209 197 197 202 206 211 214 219 220 222 228 232 236 241 241 238 226 220 211 209 208 211 209 213 213 214 216 220 230 236 241 247
331 322 299 261 245 237 244 246 243 233 218 204 195 197 203 208 210 211 214 219 223 225 230 235 237 238 232 223 218 212 210 204 207 205 210 215 218 224 233 236 238 243 249
334 332 327 281 254 245 245 245 243 237 225 216 220 200 206 206 208 210 216 220 223 227 230 232 232 234 233 225 219 211 205 200 198 203 210 217 223 227 233 237 242 244 247
332 325 337 319 272 255 249 245 242 234 226 220 226 208 206 209 211 214 217 220 223 227 229 231 232 232 228 220 214 207 209 208 213 216 214 221 229 229 235 236 239 241 245
329 331 327 337 310 269 253 246 240 232 226 222 217 218 214 214 220 219 220 225 227 229 230 232 231 229 228 223 218 215 214 214 214 216 223 223 225 227 230 233 236 240 246
315 323 322 320 327 299 263 243 239 232 230 224 223 222 220 223 224 222 226 229 230 229 231 232 232 231 234 229 223 220 221 222 224 227 228 228 229 231 235 238 236 245 254
297 312 315 312 318 333 281 247 239 236 233 231 228 227 225 225 223 225 229 232 230 232 233 234 234 234 235 234 230 227 228 228 230 231 233 233 233 235 236 241 244 251 257
297 297 305 318 316 321 340 256 246 236 235 235 233 230 231 233 223 224 233 236 235 232 229 235 236 237 237 236 233 234 234 234 235 236 238 239 240 241 244 246 249 252 257
301 298 300 305 306 310 302 286 255 240 240 237 234 234 234 237 230 236 232 238 234 232 234 235 236 237 238 236 236 237 236 237 237 241 242 241 241 244 248 249 252 254 255
309 303 299 302 303 303 293 280 272 261 245 232 236 236 237 233 232 233 241 233 231 228 233 232 234 235 236 233 233 237 236 235 237 240 236 239 243 244 245 250 251 254 257
298 303 297 293 300 308 294 276 269 265 260 245 237 244 239 240 240 240 241 238 237 235 236 236 232 235 235 235 236 235 232 234 234 230 229 235 242 245 246 254 257 260 263
301 299 300 296 294 292 300 292 282 267 260 257 250 246 244 239 242 241 240 240 239 236 237 233 234 233 238 235 237 237 231 232 231 232 240 249 252 251 252 264 265 268 270
293 295 295 289 286 285 285 288 272 261 254 249 244 240 238 234 236 236 238 237 239 240 238 236 235 236 241 237 239 239 235 237 241 244 247 253 256 258 262 265 268 269 270
293 296 299 293 284 279 280 279 271 266 255 250 246 241 240 238 237 236 233 234 234 236 235 235 236 236 240 240 241 241 242 245 247 250 251 255 257 260 266 267 270 273 274